Rugby, ND

11:31 PM CST on December 07, 2019 (GMT -0600)
Rugby Municipal

Weather History for KRUG - October, 2019

Change the Weather History Date:

Friday, October 4, 2019

  Actual Average Record
Temperature  
Mean Temperature 44 °F -  
Max Temperature 48 °F 62 °F 92 °F (1963)
Min Temperature 39 °F 35 °F 16 °F (1988)
Degree Days  
Heating Degree Days 22    
Moisture  
Dew Point 39 °F    
Average Humidity 87    
Maximum Humidity 100    
Minimum Humidity 71    
Precipitation  
Precipitation 0.00 in - - ()
Sea Level Pressure  
Sea Level Pressure 30.13 in    
Wind  
Wind Speed 15 mph (SE)    
Max Wind Speed 26 mph    
Max Gust Speed 32 mph    
Visibility 9 miles    
Events      
Averages and records for this station are not official NWS values.
T = Trace of Precipitation, MM = Missing Value Source: NWS Daily Summary

Daily Weather History Graph

Daily Weather History Graph

Search for Another Location

Airport or City:

Astronomy

Oct. 04, 2019 Rise Set
Actual Time 7:43 AM CDT 7:13 PM CDT
Civil Twilight 7:12 AM CDT 7:44 PM CDT
Nautical Twilight 6:36 AM CDT 8:20 PM CDT
Astronomical Twilight 5:59 AM CDT 8:57 PM CDT
Moon 2:43 PM CDT (10/4) 11:17 PM CDT (10/4)
Length of Visible Light 12h 32m
Length of Day
11h 29m
Waxing Crescent, 40% of the Moon is Illuminated
Oct 4
Waxing Crescent
Oct 5
First Quarter
Oct 13
Full
Oct 21
Last Quarter
Oct 27
New

Hourly Weather History & Observations

Time (CDT) Temp. Windchill Dew Point Humidity Pressure Visibility Wind Dir Wind Speed Gust Speed Precip Events Conditions
12:15 AM 42.8 °F 38.0 °F 37.4 °F 81% 30.31 in 10.0 mi SSE 8.1 mph - N/A   Overcast
12:35 AM 42.8 °F 38.6 °F 37.4 °F 81% 30.32 in 10.0 mi South 6.9 mph - N/A   Overcast
12:55 AM 42.8 °F 37.0 °F 37.4 °F 81% 30.31 in 10.0 mi South 10.4 mph - N/A   Overcast
1:15 AM 42.8 °F 37.0 °F 37.4 °F 81% 30.30 in 10.0 mi SSE 10.4 mph 17.3 mph N/A   Overcast
1:35 AM 42.8 °F 36.2 °F 37.4 °F 81% 30.30 in 10.0 mi South 12.7 mph - N/A   Overcast
1:55 AM 41.0 °F 34.7 °F 37.4 °F 87% 30.31 in 10.0 mi South 10.4 mph - N/A   Overcast
2:15 AM 41.0 °F 35.2 °F 37.4 °F 87% 30.30 in 10.0 mi SSE 9.2 mph - N/A   Overcast
2:35 AM 41.0 °F 35.2 °F 37.4 °F 87% 30.30 in 10.0 mi SSE 9.2 mph - N/A   Overcast
2:55 AM 41.0 °F 34.3 °F 37.4 °F 87% 30.30 in 10.0 mi SSE 11.5 mph - N/A   Overcast
3:15 AM 41.0 °F 33.9 °F 37.4 °F 87% 30.29 in 10.0 mi SSE 12.7 mph - N/A   Overcast
3:35 AM 41.0 °F 38.0 °F 37.4 °F 87% 30.29 in 10.0 mi North 4.6 mph - N/A   Overcast
3:55 AM 41.0 °F 34.3 °F 37.4 °F 87% 30.29 in 10.0 mi SSE 11.5 mph - N/A   Overcast
4:15 AM 41.0 °F 33.5 °F 37.4 °F 87% 30.28 in 10.0 mi SSE 13.8 mph 20.7 mph N/A   Overcast
4:35 AM 41.0 °F 33.1 °F 37.4 °F 87% 30.27 in 10.0 mi SSE 15.0 mph - N/A   Overcast
4:55 AM 41.0 °F 33.9 °F 37.4 °F 87% 30.27 in 10.0 mi SSE 12.7 mph - N/A   Overcast
5:15 AM 39.2 °F 30.8 °F 37.4 °F 93% 30.27 in 10.0 mi SSE 15.0 mph - N/A   Overcast
5:35 AM 39.2 °F 32.0 °F 37.4 °F 93% 30.27 in 10.0 mi SSE 11.5 mph 17.3 mph N/A   Overcast
5:55 AM 39.2 °F 30.8 °F 35.6 °F 87% 30.27 in 10.0 mi SSE 15.0 mph - N/A   Overcast
6:15 AM 39.2 °F 30.8 °F 37.4 °F 93% 30.26 in 10.0 mi SE 15.0 mph 20.7 mph N/A   Overcast
6:35 AM 39.2 °F 30.2 °F 35.6 °F 87% 30.26 in 10.0 mi SSE 17.3 mph 23.0 mph N/A   Overcast
6:55 AM 39.2 °F 31.2 °F 35.6 °F 87% 30.25 in 10.0 mi SE 13.8 mph 21.9 mph N/A   Overcast
7:15 AM 39.2 °F 29.8 °F 35.6 °F 87% 30.24 in 10.0 mi SSE 18.4 mph - N/A   Overcast
7:35 AM 39.2 °F 30.5 °F 35.6 °F 87% 30.24 in 10.0 mi SSE 16.1 mph 23.0 mph N/A   Overcast
7:55 AM 39.2 °F 30.2 °F 37.4 °F 93% 30.24 in 10.0 mi SSE 17.3 mph 24.2 mph N/A   Overcast
8:15 AM 39.2 °F 29.8 °F 37.4 °F 93% 30.23 in 10.0 mi SSE 18.4 mph 28.8 mph N/A   Overcast
8:35 AM 39.2 °F 28.7 °F 35.6 °F 87% 30.22 in 10.0 mi SSE 23.0 mph - N/A   Overcast
8:55 AM 39.2 °F 29.6 °F 37.4 °F 93% 30.22 in 10.0 mi SSE 19.6 mph 28.8 mph N/A   Overcast
9:15 AM 39.2 °F 29.0 °F 37.4 °F 93% 30.22 in 10.0 mi SSE 21.9 mph 27.6 mph N/A   Overcast
9:35 AM 39.2 °F 29.0 °F 37.4 °F 93% 30.23 in 10.0 mi SSE 21.9 mph - N/A   Overcast
10:35 AM 39.2 °F 29.8 °F 37.4 °F 93% 30.20 in 10.0 mi SSE 18.4 mph 26.5 mph N/A   Overcast
10:55 AM 41.0 °F 32.5 °F 37.4 °F 87% 30.20 in 10.0 mi SE 17.3 mph - N/A   Overcast
11:15 AM 41.0 °F 31.4 °F 37.4 °F 87% 30.19 in 10.0 mi SSE 21.9 mph 29.9 mph N/A   Overcast
11:35 AM 42.8 °F 34.3 °F 37.4 °F 81% 30.17 in 10.0 mi SSE 19.6 mph 25.3 mph N/A   Overcast
11:55 AM 41.0 °F 31.4 °F 37.4 °F 87% 30.17 in 10.0 mi SSE 21.9 mph - N/A   Overcast
12:15 PM 42.8 °F 34.5 °F 37.4 °F 81% 30.16 in 10.0 mi SSE 18.4 mph 25.3 mph N/A   Overcast
12:35 PM 42.8 °F 34.3 °F 39.2 °F 87% 30.15 in 10.0 mi SE 19.6 mph 25.3 mph N/A   Overcast
12:55 PM 44.6 °F 35.9 °F 39.2 °F 81% 30.14 in 10.0 mi SE 23.0 mph 29.9 mph N/A   Overcast
1:15 PM 44.6 °F 35.5 °F 39.2 °F 81% 30.12 in 10.0 mi SSE 25.3 mph 31.1 mph N/A   Overcast
1:35 PM 44.6 °F 35.7 °F 39.2 °F 81% 30.11 in 10.0 mi SSE 24.2 mph - N/A   Mostly Cloudy
1:55 PM 46.4 °F 38.5 °F 39.2 °F 76% 30.10 in 10.0 mi SSE 21.9 mph 32.2 mph N/A   Mostly Cloudy
2:15 PM 46.4 °F 37.7 °F 39.2 °F 76% 30.09 in 10.0 mi SE 26.5 mph - N/A   Mostly Cloudy
2:35 PM 46.4 °F 38.3 °F 39.2 °F 76% 30.07 in 10.0 mi SE 23.0 mph 31.1 mph N/A   Scattered Clouds
2:55 PM 46.4 °F 38.1 °F 39.2 °F 76% 30.06 in 10.0 mi SE 24.2 mph - N/A   Partly Cloudy
3:15 PM 48.2 °F - 39.2 °F 71% 30.05 in 10.0 mi SE 21.9 mph 29.9 mph N/A   Scattered Clouds
3:35 PM 46.4 °F 38.3 °F 39.2 °F 76% 30.04 in 10.0 mi SE 23.0 mph - N/A   Mostly Cloudy
3:55 PM 46.4 °F 38.5 °F 39.2 °F 76% 30.03 in 10.0 mi SE 21.9 mph 31.1 mph N/A   Overcast
4:15 PM 46.4 °F 38.3 °F 39.2 °F 76% 30.02 in 10.0 mi SE 23.0 mph 29.9 mph N/A   Mostly Cloudy
4:35 PM 44.6 °F 35.5 °F 39.2 °F 81% 30.02 in 10.0 mi SE 25.3 mph 31.1 mph N/A   Mostly Cloudy
4:55 PM 44.6 °F 36.4 °F 39.2 °F 81% 30.01 in 10.0 mi SE 20.7 mph 28.8 mph N/A   Overcast
5:15 PM 44.6 °F 36.6 °F 39.2 °F 81% 30.01 in 10.0 mi SE 19.6 mph 26.5 mph N/A   Overcast
5:35 PM 44.6 °F 36.9 °F 39.2 °F 81% 30.01 in 10.0 mi SE 18.4 mph 28.8 mph N/A   Overcast
5:55 PM 42.8 °F 34.0 °F 39.2 °F 87% 30.01 in 10.0 mi SE 20.7 mph 28.8 mph N/A   Overcast
6:15 PM 42.8 °F 33.5 °F 39.2 °F 87% 30.01 in 10.0 mi SE 23.0 mph - N/A   Overcast
6:35 PM 42.8 °F 34.3 °F 39.2 °F 87% 30.00 in 10.0 mi SE 19.6 mph 29.9 mph N/A   Overcast
6:55 PM 42.8 °F 34.5 °F 39.2 °F 87% 29.99 in 10.0 mi SE 18.4 mph 26.5 mph N/A   Overcast
7:15 PM 42.8 °F 34.5 °F 39.2 °F 87% 29.98 in 10.0 mi SE 18.4 mph - N/A   Overcast
7:35 PM 42.8 °F 34.8 °F 39.2 °F 87% 29.98 in 9.0 mi SE 17.3 mph 24.2 mph N/A   Overcast
7:55 PM 44.6 °F 36.6 °F 39.2 °F 81% 29.98 in 10.0 mi SE 19.6 mph 26.5 mph N/A   Overcast
8:15 PM 44.6 °F 38.1 °F 41.0 °F 87% 29.99 in 7.0 mi SE 13.8 mph - N/A   Overcast
8:35 PM 44.6 °F 38.4 °F 41.0 °F 87% 29.99 in 10.0 mi SE 12.7 mph 18.4 mph N/A   Overcast
8:55 PM 44.6 °F 37.8 °F 41.0 °F 87% 29.98 in 10.0 mi SSE 15.0 mph - N/A   Overcast
9:15 PM 44.6 °F 37.8 °F 42.8 °F 93% 29.97 in 3.0 mi SSE 15.0 mph 20.7 mph N/A   Overcast
9:35 PM 42.8 °F 36.6 °F 42.8 °F 100% 29.97 in 3.0 mi SE 11.5 mph - N/A   Overcast
9:55 PM 42.8 °F 35.8 °F 42.8 °F 100% 29.97 in 3.0 mi SE 13.8 mph - N/A   Mist
10:15 PM 42.8 °F 35.1 °F 42.8 °F 100% 29.96 in 4.0 mi SE 16.1 mph - N/A   Mist
10:35 PM 42.8 °F 35.1 °F 42.8 °F 100% 29.95 in 3.0 mi SE 16.1 mph - N/A   Overcast
10:55 PM 42.8 °F 35.1 °F 42.8 °F 100% 29.94 in 4.0 mi SE 16.1 mph - N/A   Overcast
11:15 PM 42.8 °F 35.1 °F 42.8 °F 100% 29.94 in 6.0 mi SE 16.1 mph 24.2 mph N/A   Overcast
11:35 PM 42.8 °F 35.4 °F 42.8 °F 100% 29.93 in 9.0 mi SE 15.0 mph 20.7 mph N/A   Overcast
11:55 PM 42.8 °F 35.1 °F 42.8 °F 100% 29.92 in 10.0 mi SE 16.1 mph - N/A   Overcast